Rangeley, Maine, United States (04970)
Lat: 44.97N, Lon: 70.64W
Wx Zone: MEZ008
Local Info
Past Weather Observations for Today

NOTE: This archive is for the closest National Weather Service station to Rangeley. Information may differ from the station used for current weather conditions.

Click here for Long-term Archive

Time Weather Temperature Dewpoint Humidity Pressure Winds Precip Visibility
10:52
Clear
73°F / 23°C 55°F / 13°C 53% 30.09 in
(1019 mb)
Variable 3.5 mph
(Variable 6 kph)
- 10SM
09:52
Clear
72°F / 22°C 54°F / 12°C 53% 30.09 in
(1019 mb)
Variable 4.6 mph
(Variable 7 kph)
- 10SM
08:52
Clear
68°F / 20°C 57°F / 14°C 69% 30.09 in
(1019 mb)
SW 3.5 mph
(SW 6 kph)
- 10SM
08:18
Partly Cloudy
63°F / 17°C 57°F / 14°C 83% 30.09 in
(1019 mb)
Calm - 9SM
08:09
Mostly Cloudy
Fog And Mist
61°F / 16°C 57°F / 14°C 88% 30.09 in
(1019 mb)
Calm - 5SM
08:02
Mostly Cloudy
Fog And Mist
61°F / 16°C 57°F / 14°C 88% 30.09 in
(1019 mb)
Calm - 2SM
07:58
Obscured
Fog And Mist
59°F / 15°C 57°F / 14°C 94% 30.09 in
(1019 mb)
Calm - 1SM
07:52
Obscured
Fog
57°F / 14°C 57°F / 14°C 100% 30.09 in
(1019 mb)
Calm - 1/4SM
06:52
Obscured
Fog
55°F / 13°C 54°F / 12°C 94% 30.09 in
(1019 mb)
Calm - M1/4SM
05:52
Obscured
Fog
52°F / 11°C 52°F / 11°C 100% 30.09 in
(1019 mb)
Calm - M1/4SM
04:52
Obscured
Fog
54°F / 12°C 52°F / 11°C 94% 30.06 in
(1018 mb)
Calm - M1/4SM
04:25
Obscured
Fog
54°F / 12°C 52°F / 11°C 94% 30.06 in
(1018 mb)
Calm - 1/4SM
04:15
Obscured
Fog
50°F / 10°C 48°F / 9°C 94% 30.06 in
(1018 mb)
Calm - 1/4SM
03:52
Obscured
Fog And Mist
52°F / 11°C 52°F / 11°C 100% 30.06 in
(1018 mb)
Calm - 3/4SM
03:50
Obscured
Fog And Mist
54°F / 12°C 52°F / 11°C 94% 30.06 in
(1018 mb)
Calm - 1SM
03:42
Mostly Cloudy
Fog And Mist
52°F / 11°C 50°F / 10°C 94% 30.04 in
(1017 mb)
Calm - 2SM
03:31
Mostly Cloudy
Fog And Mist
52°F / 11°C 52°F / 11°C 100% 30.04 in
(1017 mb)
Calm - 1 1/4SM
03:23
Partly Cloudy
Fog And Mist
54°F / 12°C 52°F / 11°C 94% 30.04 in
(1017 mb)
Calm - 2 1/2SM
03:16
Partly Cloudy
Fog And Mist
52°F / 11°C 50°F / 10°C 94% 30.04 in
(1017 mb)
Calm - 3SM
03:11
Clear
Fog And Mist
52°F / 11°C 52°F / 11°C 100% 30.04 in
(1017 mb)
Calm - 2SM
03:01
Clear
Fog And Mist
55°F / 13°C 54°F / 12°C 94% 30.04 in
(1017 mb)
Calm - 3SM
02:52
Clear
Fog And Mist
54°F / 12°C 52°F / 11°C 94% 30.04 in
(1017 mb)
Calm - 2SM
02:47
Clear
Fog And Mist
52°F / 11°C 48°F / 9°C 88% 30.04 in
(1017 mb)
Calm - 1 3/4SM
02:40
Clear
Fog And Mist
54°F / 12°C 52°F / 11°C 94% 30.04 in
(1017 mb)
Calm - 3SM
02:33
Clear
Fog And Mist
54°F / 12°C 52°F / 11°C 94% 30.04 in
(1017 mb)
Calm - 2 1/2SM
01:52
Clear
Fog And Mist
57°F / 14°C 55°F / 13°C 94% 30.01 in
(1016 mb)
Calm - 6SM
00:52
Partly Cloudy
63°F / 17°C 57°F / 14°C 83% 30.01 in
(1016 mb)
NNW 5.8 mph
(NNW 9 kph)
- 7SM
Time Weather Temperature Dewpoint Humidity Pressure Winds Precip Visibility


Weather for websites

WeatherForYou.com, LLC is not responsible for any damages or problems caused by this service. Current weather conditions are obtained from the closest station including government and personal stations which may have varying degrees of accuracy. Weather forecasts are derived from the NOAA NDFD. Like all things, this site belongs to Jesus Christ... He just trusts us to maintain it. If you have any questions or comments email webmaster@weatherforyou.com

Copyright © 2015, WeatherForYou.com LLC. All rights reserved.